Showing default

EXPLORER 20, 870

Orbit data source: Space-Track

EXPLORER 20, 870 is a payload satellite owned by GSFC (US) in LEO that was launched on Tue, 25 Aug 1964 UTC via an SCOUT X-4 launch vehicle from the Air Force Western Test Range (AFWTR). Payload-class satellites include a variety of spacecraft equipped with specific instruments for various scientific and technological missions. These include communications satellites like Starlink; space stations such as the ISS; scientific satellites like the Hubble; Earth observation satellites from companies like Planet Labs, Umbra, and HawkEye 360; GPS; miniature CubeSats for education and research; and military/defense satellites.

Loading next visibility...
Identifier
870, 1964-051A
Orbit
LEO
Country
Flag of USUS
Related business
Manufacturer
Cutler-Hammer/AIL
Mission
Spacecraft
Bus & Motor
S-48, Unknown motor
Mass
44 kg wet, 44 kg dry
Launch date (UTC)
1964-08-25 (61 years ago)
Launch vehicle
SCOUT X-4
Launch site
Air Force Western Test Range (AFWTR)
Object type
Payload
Rocket body
Debris
Shape & HBR
Unknown
Radar Cross Section
Medium (>0.1 m² and <1 m²)

Expand to show TLE details & history
Last TLE update: 8 hours ago

TLE from 8 hours ago
0 EXPLORER 20
1 00870U 64051A   25293.27587618  .00000194  00000-0  14155-3 0  9999
2 00870  79.8994 179.8197 0096572 193.9620 165.8865 13.91724377100064
Epoch: 2025-10-20T06:37Z
TLE epoch observation values (Epoch: 2025-10-20T06:37:15.701Z)
Latitude
0.00001°
Longitude
51.52376°
Altitude
993.852 km
Speed
7.32 km/s
True Right ascension
11h 59m 16s
True Declination
0° 00' 00"
Sunlit
Object was in daylight at epoch
Visualization orbit readout
Latitude
Unknown
Longitude
Unknown
Altitude
Unknown
Speed
Unknown
Apparent Right ascension
Unknown
Apparent Declination
Unknown
Sunlit
N/A
Visualization observer readout
Local Sidereal Time
09:53:43
Azimuth
Unknown
Elevation
Unknown
Doppler factor
Unknown
Orbital elements
Apogee altitude
990.339 km
Perigee altitude
849.383 km
Semi-major axis
7,297.998 km
Eccentricity
0.00966
Inclination
79.8994°
RAAN
179.8197°
Arg. of periapsis
193.962°
True anomaly
166.15322°
Mean anomaly
165.8865°
Eccentric anomaly
166.02017°
Mean motion
3.48127 °/min
Orbital period
103.41 mins
BSTAR
0.00014155
Loading maneuver chart data...
Computing Atmospheric mass density...
Loading historical data...
Loading historical data...
Loading historical data...
Loading historical data...
Loading historical data...
Loading historical data...
Loading historical data...

Documentation

Showing up to 5 results
|